ZHONGXING-4A

Last updated on Wed Jul 09 2025 00:02:48 GMT+0000 (Coordinated Universal Time)

1 60606U 24151A 25189.62758380 -.00000344 00000+0 00000+0 0 9995 2 60606 2.2027 274.6111 0001668 170.8477 185.4620 1.00275987 3301
UTC large
Height (km)
Speed (km/s)
/
Latitude / Longitude
Inclination (degrees)
Orbital Period (minutes)
Azimuth
Elevation
Range (km)
Doppler Factor

Next 0 passes for location: London (51.5072 / 0.1276)

Sorry there are no passes over London.